Regional Weather Roundup
Issued by NWS

Home | Current Version | Previous Version | Graphics & Text | Print | Product List | Glossary On
Versions: 1 2 3 4 5 6 7 8 9 10 11 12 13 14 15 16 17 18 19 20 21 22 23 24 25 26 27 28 29 30 31 32 33 34 35 36 37 38 39 40 41 42 43 44 45 46 47 48 49 50
000
ASUS45 KSLC 290110
RWRUT

UTAH REGIONAL WEATHER ROUNDUP
NATIONAL WEATHER SERVICE SALT LAKE CITY UT
700 PM MDT THU AUG 28 2014

UTZ001>011-023>025-290200-

NORTHERN UTAH

CITY           SKY/WX    TMP DP  RH WIND       PRES   REMARKS
HILL AFB         N/A     79  41  26 W6        30.14S
LOGAN          SUNNY     81  46  29 SW5       30.10S
OGDEN            N/A     80  38  22 W3        30.11F
PROVO AIRPORT  MOSUNNY   79  48  34 SW5       30.13
SALT LAKE CITY MOSUNNY   83  36  18 NW3       30.09F
VERNAL         CLEAR     72  52  49 S3        30.15F
WENDOVER       SUNNY     84  37  18 SE8       30.08S
HEBER CITY       N/A     73  52  46 NW5       30.18F
WEST JORDAN    SUNNY     81  48  32 CALM      30.13S

$$

UTZ012>022-026-027-290200-

SOUTHERN UTAH

CITY           SKY/WX    TMP DP  RH WIND       PRES   REMARKS
BRYCE CANYON   SUNNY     71  36  27 W15       30.31F
CEDAR CITY     SUNNY     81  27  14 NE5       30.16F
MILFORD        SUNNY     83  36  18 NE12      30.12F
MOAB/CYNLANDS  CLEAR     82  44  26 VRB3      30.08F
PRICE          MOSUNNY   79  36  21 W10       30.18S
ST GEORGE        N/A     95  41  15 SW7       29.96F HX  91

$$

REGIONAL REPORTS     COLORADO/ARIZONA

CITY           SKY/WX    TMP DP  RH WIND       PRES   REMARKS
CRAIG, CO      PTCLDY    70  48  45 W8        30.20F
GRAND JUNCTION CLOUDY    74  48  39 S5        30.13F
RIFLE          PTCLDY    69  51  52 W6        30.17F
MONTROSE       CLEAR     71  46  40 CALM      30.22F
CORTEZ         CLEAR     74  44  34 N12G18    30.19S
PAGE, AZ       SUNNY     87  39  18 E9        30.06F
GRAND CANYON   SUNNY     77  37  23 NW7       30.26S
KINGMAN        SUNNY     93  32  11 N7        30.01S
FLAGSTAFF      SUNNY     73  39  29 E3        30.28S

$$

REGIONAL REPORTS    NEVADA/IDAHO/WYOMING

CITY           SKY/WX    TMP DP  RH WIND       PRES   REMARKS
LAS VEGAS, NV  SUNNY    101  30   8 S3        29.85F HX  94
ELY            SUNNY     81  29  15 N7        30.20F
ELKO           SUNNY     85  32  15 SW8       30.09F
POCATELLO, ID  MOSUNNY   84  41  21 SW15      30.06F
BURLEY         SUNNY     83  45  26 W5        30.02F
EVANSTON, WY   SUNNY     70  41  34 SW8       30.27F
ROCK SPRINGS   CLEAR     71  39  31 W12       30.21F

$$


USA.gov is the U.S. government's official web portal to all federal, state and local government web resources and services.